Location: Powder Track
(41.8531°N, 72.3584°W)
Time: 22:57:47
(UTC+00:00)

Vanguard 2 Rocket - Pass Details

Date: 06 August 2021
Orbit: 555 x 3324 km, 32.9° (Epoch: 18 September)

Event Time Altitude Azimuth Distance (km) Brightness Sun altitude
Rises 09:24:23 0° 221° (SW) 4,260 - -4.9°
Exits shadow 09:25:16 - 219° (SW) 3,957 9.6 -4.8°
Reaches altitude 10° 09:28:54 10° 203° (SSW) 2,782 8.9 -4.2°
Maximum altitude 09:32:40 16° 166° (SSE) 1,985 8.5 -3.5°
Drops below altitude 10° 09:35:41 10° 127° (SE) 2,134 9.2 -3.0°
Sets 09:38:28 0° 104° (ESE) 2,858 10.4 -2.6°
